Wind_Speed
2 2 2 2 1 1 1 1 2 2 3 4 4 5 7 9 9 8 8 8 9 9 10 10 11 11 12 11 12 13 13 13 13 11 12 14 15 16 17 17 18 18
4 3 2 0 1 2 2 3 3 4 5 6 7 7 8 9 9 9 9 10 10 11 11 11 11 12 12 12 13 14 14 14 13 12 12 14 15 16 16 16 17 18
3 1 1 1 2 2 3 3 4 5 6 7 7 7 8 8 8 9 10 11 11 11 12 12 12 12 13 13 14 15 15 14 13 13 14 15 15 16 16 16 16 15
1 1 1 2 1 2 2 3 4 5 6 6 6 6 7 8 8 9 10 10 11 11 12 12 12 13 14 14 15 16 16 16 16 16 16 16 15 14 15 16 17 15
1 1 1 1 1 1 2 3 3 4 4 4 5 6 7 8 8 9 10 10 11 11 12 12 13 13 14 15 15 16 17 17 18 18 18 19 17 15 14 15 16 17
1 0 1 1 1 1 1 2 3 3 4 4 6 6 7 8 9 9 10 10 11 11 12 12 12 12 13 14 14 15 16 17 18 18 18 19 19 17 16 16 16 16
1 1 1 2 2 2 2 3 3 4 4 5 6 7 8 8 9 9 10 10 10 10 11 11 11 12 13 13 14 15 16 16 17 17 17 17 17 17 17 16 16 15
1 2 3 4 3 3 3 3 3 4 5 6 7 7 8 8 8 9 9 9 9 9 10 11 12 13 14 16 16 16 17 17 17 17 16 16 16 16 16 14 15 15
3 4 4 5 4 3 3 3 3 5 5 6 7 7 8 8 8 8 9 9 9 10 11 13 14 15 16 17 18 17 17 17 17 16 16 17 17 16 15 13 12 13
5 5 5 5 5 4 4 4 5 6 6 7 7 8 8 9 9 9 10 10 11 12 13 14 15 16 17 17 17 16 17 16 16 16 17 18 18 17 15 13 12 11
7 6 5 5 5 5 5 5 6 7 7 7 8 9 9 10 10 11 12 12 13 14 15 16 16 17 17 17 17 16 15 15 14 15 15 16 16 15 15 14 13 12
7 6 5 5 5 5 6 6 7 7 7 8 9 10 10 11 12 12 13 14 14 15 16 16 16 17 18 18 19 18 17 16 16 16 15 14 14 13 13 13 13 12
6 5 5 5 5 6 7 7 7 8 9 10 10 10 11 12 13 14 14 15 16 16 16 16 16 17 18 20 21 21 20 20 19 19 18 17 15 13 12 12 13 13
6 5 6 6 7 8 8 9 9 10 11 11 11 12 13 14 15 16 14 13 15 17 17 16 17 18 19 20 21 21 21 20 20 20 20 19 17 15 13 13 13 13
6 6 7 8 8 9 10 10 11 12 12 12 13 14 16 17 17 17 15 13 15 18 18 18 19 19 20 21 21 21 20 18 18 18 18 18 17 15 15 15 15 15
7 8 8 8 9 10 10 11 12 12 13 13 14 16 17 17 16 16 15 14 16 18 19 19 20 20 20 20 20 19 18 17 16 16 16 16 15 15 15 15 15 14
8 8 8 8 9 10 11 11 11 12 12 13 14 16 17 16 15 15 15 14 15 18 19 19 19 19 19 19 18 17 16 15 16 16 15 15 15 15 15 14 14 13
8 8 8 8 9 10 11 11 10 11 11 12 13 14 15 16 15 15 14 12 13 16 18 18 18 18 18 18 17 15 15 15 15 15 15 16 16 17 17 16 15 14
8 8 8 8 9 9 9 10 10 10 11 11 12 12 12 14 15 15 14 12 11 14 17 17 17 17 17 17 16 14 14 15 15 15 16 17 19 20 20 20 19 19
8 8 8 8 9 9 9 9 10 10 10 10 11 10 10 11 13 14 14 13 12 12 15 17 17 17 16 16 14 13 13 14 13 14 16 17 19 20 21 22 22 23
9 8 8 9 9 9 9 10 10 11 11 11 11 11 11 11 11 12 13 13 12 11 14 17 17 16 16 15 14 13 13 13 12 13 15 17 19 20 21 22 22 22
9 9 10 10 10 10 11 11 11 11 11 12 14 16 16 14 12 14 15 14 12 11 13 17 18 17 17 17 15 14 13 12 12 13 15 18 20 21 21 22 22 22
10 10 11 11 11 11 11 11 11 11 11 13 16 19 20 18 18 20 20 19 16 13 13 17 20 20 19 18 18 16 13 11 11 12 13 15 18 20 21 22 23 24
11 11 11 11 11 12 11 11 11 11 12 15 18 19 20 20 20 21 22 22 22 19 17 20 22 22 21 21 21 19 14 11 11 12 12 13 15 17 19 20 21 24
11 11 11 12 12 12 11 11 12 13 15 17 18 18 19 19 19 20 21 22 24 24 23 23 24 24 24 24 24 23 18 13 12 12 13 14 15 15 17 17 18 22
11 11 12 12 12 12 12 14 16 18 19 18 17 17 17 18 19 20 22 22 22 23 23 23 24 24 25 26 26 27 25 18 14 13 14 15 15 15 17 18 17 19
Wind_Direction
281 257 243 237 236 261 308 339 335 330 332 338 336 331 329 327 324 324 325 328 332 335 336 334 330 326 321 316 312 311 307 302 298 293 288 284 283 283 281 278 274 273
308 276 261 266 329 343 357 351 346 339 335 339 338 332 329 327 328 330 333 336 338 338 337 335 331 325 321 316 313 313 311 307 302 295 288 284 280 278 279 279 278 276
331 309 346 57 37 9 5 354 349 344 337 336 332 329 330 331 335 338 340 341 341 341 338 336 331 327 322 318 316 315 312 309 306 300 295 293 289 283 278 275 274 275
13 57 73 73 48 18 9 358 348 338 331 327 325 332 339 342 347 348 346 345 342 340 338 334 331 327 323 320 318 316 315 314 313 310 306 305 301 294 287 279 271 268
103 88 95 80 22 24 18 360 344 331 327 331 342 354 357 355 355 351 347 345 342 340 337 334 331 328 325 324 322 321 320 320 319 317 314 312 308 302 297 290 279 270
144 149 105 88 51 46 34 13 359 345 348 359 3 4 2 358 354 351 349 348 347 344 341 340 337 336 334 332 331 329 327 325 322 320 317 317 315 309 303 295 288 280
165 147 99 94 93 80 59 40 20 7 6 10 10 7 3 360 356 354 353 353 354 352 350 349 348 347 346 343 342 340 337 333 330 327 325 324 323 320 314 299 288 286
121 105 97 93 92 84 69 54 33 21 18 14 14 13 7 3 1 359 359 0 2 2 359 356 356 356 355 353 352 350 349 347 343 341 338 335 333 332 329 315 294 288
104 103 101 93 87 86 78 67 49 33 28 19 17 17 12 10 10 8 10 11 11 11 7 5 5 5 3 0 359 359 358 356 352 351 349 348 347 344 340 334 314 298
112 108 100 90 86 83 72 60 48 37 29 22 19 20 20 20 20 19 19 19 18 16 13 13 13 12 9 6 4 3 2 358 358 358 357 356 357 355 350 347 338 324
113 108 99 89 80 71 61 51 45 39 32 28 27 28 28 27 26 24 24 23 22 22 21 21 21 18 16 12 9 7 1 358 1 2 359 358 358 357 356 352 345 337
112 107 98 84 69 62 57 53 50 45 41 38 37 36 34 32 30 28 29 30 30 29 30 30 28 25 23 21 18 15 8 5 6 4 360 356 352 349 349 347 342 334
110 102 91 77 67 63 61 60 59 53 50 47 44 44 42 38 36 34 36 40 40 40 38 36 33 30 27 26 23 20 18 15 11 7 5 2 355 349 346 344 342 335
107 92 83 76 70 70 69 66 62 57 55 54 51 51 51 49 47 46 45 45 44 44 40 33 30 28 25 23 21 21 21 19 13 9 8 7 3 356 350 347 345 339
94 84 81 76 74 74 71 66 63 61 60 58 56 57 57 55 53 51 50 47 44 42 37 31 28 26 23 20 19 19 20 17 14 12 10 8 5 0 358 355 351 346
88 84 81 78 77 73 69 65 63 63 61 59 58 59 59 57 53 52 51 48 45 42 36 31 29 27 25 23 21 19 17 16 15 13 12 8 4 3 3 0 356 349
89 86 81 78 76 70 69 68 65 64 63 61 61 61 61 58 55 53 52 49 45 42 37 33 30 29 27 26 24 20 17 18 18 16 16 14 10 9 9 7 2 353
92 88 83 80 77 73 72 71 68 69 66 65 65 63 60 58 55 52 51 48 45 41 37 33 30 28 25 25 25 21 22 28 29 27 27 28 28 26 24 21 17 13
94 91 88 85 82 79 79 76 74 74 70 68 67 64 60 57 54 52 50 47 44 41 38 34 29 26 25 27 25 21 29 39 40 39 39 39 39 38 34 31 28 28
93 94 92 89 88 86 85 82 78 75 73 70 66 63 60 57 52 49 48 46 44 42 38 34 31 26 26 29 25 21 32 43 42 41 41 39 40 38 34 32 30 28
95 97 94 91 91 90 88 84 79 76 74 70 68 66 62 58 54 50 47 45 45 43 39 36 33 27 26 29 26 24 34 40 38 39 39 36 36 34 31 29 27 23
98 99 97 95 93 91 88 84 80 79 76 71 69 67 63 59 56 53 50 47 46 45 40 37 33 28 26 26 23 26 37 39 34 36 36 33 31 28 25 22 18 15
104 104 100 97 95 91 88 85 82 81 80 75 73 70 66 61 56 54 52 50 48 48 43 38 36 31 28 27 24 27 37 37 31 31 30 27 24 19 16 14 10 7
107 104 100 97 95 92 89 87 85 83 82 79 76 73 70 66 62 58 57 53 51 52 51 46 43 39 36 35 32 33 38 34 27 27 24 21 18 13 12 12 10 9
104 101 100 96 94 94 90 89 87 85 84 81 77 74 73 71 68 65 63 60 56 56 56 54 50 47 45 44 41 41 43 40 31 29 26 22 20 18 19 20 18 16
103 100 98 96 95 94 92 91 89 85 84 82 80 80 78 75 73 69 65 63 59 57 58 55 53 51 49 49 47 45 46 45 40 36 32 29 29 28 27 25 24 22
Height
1542 1542 1542 1542 1542 1542 1542 1542 1542 1542 1542 1542 1542 1541 1541 1540 1540 1539 1539 1538 1537 1536 1535 1535 1534 1533 1533 1532 1531 1531 1530 1529 1529 1528 1528 1527 1526 1525 1524 1523 1522 1521
1540 1540 1540 1540 1540 1540 1541 1541 1541 1541 1541 1541 1540 1540 1539 1539 1538 1537 1537 1536 1535 1535 1534 1533 1533 1532 1531 1530 1530 1529 1528 1527 1526 1525 1525 1524 1523 1522 1521 1521 1520 1519
1538 1538 1538 1539 1539 1539 1539 1540 1540 1540 1540 1539 1539 1539 1538 1538 1537 1536 1535 1534 1534 1533 1532 1532 1531 1530 1529 1528 1528 1527 1526 1525 1524 1523 1522 1520 1520 1518 1518 1517 1516 1516
1537 1537 1537 1538 1538 1538 1539 1539 1539 1539 1539 1539 1538 1538 1537 1536 1536 1535 1534 1533 1533 1532 1531 1530 1529 1528 1528 1527 1526 1524 1523 1522 1521 1520 1519 1518 1517 1516 1514 1513 1513 1513
1537 1537 1536 1537 1537 1537 1538 1538 1538 1538 1538 1538 1537 1537 1536 1535 1535 1534 1533 1533 1532 1531 1530 1529 1528 1527 1526 1525 1524 1523 1521 1520 1519 1518 1516 1515 1514 1513 1512 1510 1509 1509
1536 1536 1536 1536 1536 1537 1537 1537 1537 1537 1537 1537 1536 1535 1535 1534 1534 1533 1533 1532 1531 1530 1529 1528 1527 1526 1525 1524 1523 1522 1520 1519 1517 1516 1514 1512 1511 1510 1509 1507 1506 1506
1535 1535 1536 1536 1535 1536 1536 1536 1536 1536 1536 1536 1535 1534 1534 1533 1533 1532 1532 1531 1530 1529 1528 1528 1527 1526 1524 1523 1522 1520 1519 1517 1516 1514 1512 1510 1509 1507 1506 1505 1504 1503
1535 1535 1535 1535 1535 1535 1535 1535 1535 1535 1535 1535 1534 1534 1533 1533 1532 1531 1531 1530 1530 1529 1528 1527 1526 1525 1523 1522 1521 1519 1517 1516 1514 1512 1510 1509 1507 1505 1504 1502 1501 1501
1535 1535 1535 1535 1534 1534 1534 1534 1534 1534 1534 1534 1534 1533 1533 1532 1531 1531 1530 1529 1529 1528 1527 1526 1525 1524 1523 1521 1519 1518 1516 1515 1513 1511 1509 1507 1506 1504 1502 1501 1500 1499
1534 1534 1535 1535 1535 1535 1534 1534 1533 1533 1533 1533 1533 1533 1532 1531 1531 1530 1529 1529 1528 1527 1527 1526 1525 1523 1522 1520 1519 1517 1515 1514 1512 1510 1509 1507 1505 1503 1501 1500 1499 1498
1534 1534 1534 1535 1535 1534 1534 1533 1533 1532 1533 1532 1532 1532 1531 1531 1530 1530 1529 1528 1528 1527 1526 1525 1524 1523 1522 1520 1519 1517 1515 1513 1511 1510 1508 1506 1505 1503 1501 1500 1498 1497
1534 1534 1534 1535 1535 1534 1533 1533 1532 1532 1532 1532 1532 1531 1531 1531 1530 1529 1529 1528 1527 1527 1526 1525 1524 1523 1522 1520 1518 1517 1515 1513 1511 1509 1507 1506 1504 1503 1501 1499 1498 1496
1534 1534 1534 1535 1535 1534 1533 1532 1532 1532 1532 1532 1532 1531 1531 1531 1530 1529 1529 1528 1528 1527 1527 1526 1525 1523 1522 1520 1518 1516 1514 1513 1511 1509 1507 1505 1503 1502 1500 1499 1497 1496
1534 1534 1534 1535 1534 1534 1533 1532 1531 1532 1531 1532 1532 1531 1531 1531 1530 1530 1529 1529 1528 1528 1527 1526 1525 1523 1521 1520 1518 1516 1514 1513 1511 1509 1507 1505 1503 1502 1500 1499 1497 1495
1534 1535 1535 1535 1534 1534 1533 1532 1532 1532 1532 1532 1532 1531 1531 1531 1531 1530 1530 1530 1529 1528 1527 1526 1524 1522 1520 1519 1517 1516 1514 1513 1511 1509 1507 1505 1503 1502 1500 1498 1497 1495
1535 1535 1535 1535 1535 1534 1533 1533 1533 1532 1532 1532 1532 1532 1531 1531 1531 1531 1530 1530 1529 1528 1527 1525 1524 1522 1520 1519 1517 1516 1514 1512 1511 1509 1507 1505 1503 1501 1500 1498 1496 1494
1535 1535 1535 1535 1535 1534 1534 1533 1533 1533 1533 1533 1532 1532 1532 1532 1532 1531 1531 1530 1529 1528 1527 1526 1524 1523 1521 1520 1518 1516 1514 1512 1510 1508 1506 1505 1503 1501 1499 1497 1495 1494
1536 1536 1536 1536 1535 1534 1534 1534 1534 1534 1533 1533 1532 1532 1532 1532 1532 1532 1531 1530 1530 1528 1527 1526 1525 1523 1522 1520 1518 1516 1514 1512 1510 1508 1506 1505 1503 1501 1499 1497 1495 1493
1536 1536 1536 1536 1535 1535 1534 1535 1535 1534 1534 1533 1533 1533 1533 1533 1533 1532 1531 1531 1530 1529 1528 1527 1525 1524 1522 1520 1519 1517 1514 1512 1511 1509 1507 1505 1503 1501 1500 1497 1495 1493
1536 1536 1536 1536 1535 1535 1535 1535 1535 1534 1534 1534 1534 1534 1535 1534 1533 1532 1531 1531 1530 1530 1529 1527 1526 1524 1523 1521 1519 1517 1515 1513 1511 1510 1508 1506 1504 1502 1500 1498 1496 1494
1537 1537 1537 1536 1536 1536 1536 1536 1535 1535 1535 1535 1536 1536 1536 1535 1534 1533 1532 1531 1531 1530 1529 1528 1527 1525 1524 1522 1520 1518 1515 1514 1513 1511 1509 1507 1505 1503 1501 1499 1497 1495
1537 1537 1537 1537 1537 1537 1536 1536 1536 1536 1536 1536 1536 1536 1535 1535 1534 1534 1533 1532 1532 1531 1530 1529 1527 1526 1524 1522 1520 1518 1516 1516 1514 1512 1510 1508 1506 1504 1502 1500 1498 1496
1538 1538 1538 1537 1537 1537 1537 1537 1537 1537 1537 1537 1537 1536 1536 1535 1534 1534 1534 1533 1532 1532 1531 1530 1528 1526 1524 1522 1520 1518 1517 1517 1515 1513 1511 1509 1507 1505 1503 1501 1499 1496
1538 1538 1538 1537 1537 1537 1537 1538 1538 1538 1538 1538 1537 1537 1536 1536 1536 1536 1535 1535 1533 1532 1532 1531 1529 1527 1525 1523 1521 1519 1518 1517 1516 1514 1512 1510 1508 1506 1504 1502 1500 1498
1537 1537 1538 1538 1538 1538 1538 1539 1539 1539 1538 1538 1538 1538 1538 1538 1538 1537 1537 1536 1535 1534 1533 1532 1530 1528 1526 1524 1522 1520 1518 1517 1517 1515 1513 1512 1510 1508 1506 1504 1502 1499
1537 1537 1538 1538 1538 1539 1539 1540 1539 1539 1539 1539 1539 1539 1539 1539 1539 1539 1538 1537 1537 1536 1534 1533 1531 1530 1528 1526 1524 1521 1519 1518 1517 1516 1515 1513 1511 1510 1508 1506 1503 1501